DW6912 Weather Reports


time (UTC)temp
F
wind
direction
speed
knots
gust
knots
rain 1hr
in
rain 24hr
in
rain mn
in
humidity
%
barometer
mb
20260504205000 73 203 1.7 6.1 0.00 0.00 0.00 50 1006.3
20260504204900 73 142 0.9 6.1 0.00 0.00 0.00 50 1006.3
20260504204759 73 259 1.7 6.1 0.00 0.00 0.00 51 1006.3
20260504204700 73 257 0.9 8.7 0.00 0.00 0.00 50 1006.4
20260504204559 73 273 3.5 10.4 0.00 0.00 0.00 48 1006.4
20260504204501 73 252 3.5 10.4 0.00 0.00 0.00 48 1006.4
20260504204300 73 296 1.7 10.4 0.00 0.00 0.00 49 1006.5
20260504204058 73 235 3.5 10.4 0.00 0.00 0.00 49 1006.5
20260504204005 73 205 3.5 10.4 0.00 0.00 0.00 47 1006.5
20260504203859 73 221 0.0 10.4 0.00 0.00 0.00 48 1006.5
20260504203758 73 193 2.6 10.4 0.00 0.00 0.00 50 1006.4
20260504203559 73 223 4.3 7.8 0.00 0.00 0.00 51 1006.4
20260504203504 73 331 1.7 7.8 0.00 0.00 0.00 49 1006.4
20260504203401 73 190 1.7 7.8 0.00 0.00 0.00 48 1006.5
20260504203300 73 211 1.7 7.8 0.00 0.00 0.00 48 1006.4
20260504203200 73 211 0.0 7.8 0.00 0.00 0.00 49 1006.4
20260504203004 73 186 2.6 7.8 0.00 0.00 0.00 49 1006.7
20260504202859 73 239 4.3 10.4 0.00 0.00 0.00 49 1006.6
20260504202759 73 199 4.3 10.4 0.00 0.00 0.00 49 1006.6
20260504202700 73 198 1.7 10.4 0.00 0.00 0.00 51 1006.6
20260504202502 72 201 0.9 10.4 0.00 0.00 0.00 50 1006.7
20260504202400 72 213 2.6 10.4 0.00 0.00 0.00 48 1006.7
20260504202300 72 173 2.6 10.4 0.00 0.00 0.00 48 1006.7
20260504202159 72 190 2.6 10.4 0.00 0.00 0.00 48 1006.7
20260504202059 72 148 7.0 10.4 0.00 0.00 0.00 49 1006.7
20260504202005 72 200 1.7 10.4 0.00 0.00 0.00 49 1006.7
20260504201859 72 105 3.5 7.8 0.00 0.00 0.00 49 1006.7
20260504201759 72 145 1.7 7.8 0.00 0.00 0.00 48 1006.7
20260504201659 72 146 2.6 7.8 0.00 0.00 0.00 48 1006.7
20260504201600 72 105 7.8 7.8 0.00 0.00 0.00 48 1006.9
20260504201503 72 278 2.6 7.8 0.00 0.00 0.00 47 1006.8
20260504201259 73 149 7.0 8.7 0.00 0.00 0.00 49 1006.8
20260504201159 73 243 3.5 8.7 0.00 0.00 0.00 48 1006.9
20260504201059 73 157 1.7 8.7 0.00 0.00 0.00 50 1006.9
20260504201005 73 157 0.9 8.7 0.00 0.00 0.00 49 1006.9
20260504200859 73 142 3.5 8.7 0.00 0.00 0.00 48 1006.9
20260504200800 73 184 3.5 8.7 0.00 0.00 0.00 49 1006.8
20260504200701 73 142 4.3 8.7 0.00 0.00 0.00 48 1006.8
20260504200559 73 144 5.2 8.7 0.00 0.00 0.00 48 1006.8
20260504200504 73 151 0.9 8.7 0.00 0.00 0.00 49 1006.9
20260504200401 72 153 2.6 7.8 0.00 0.00 0.00 50 1006.9
20260504200300 72 98 0.0 9.6 0.00 0.00 0.00 50 1006.9
20260504200159 72 98 0.9 9.6 0.00 0.00 0.00 50 1006.9
20260504200059 72 98 0.9 9.6 0.00 0.00 0.00 48 1006.9
20260504200000 72 203 3.5 9.6 0.00 0.00 0.00 49 1007.0
20260504195858 72 200 2.6 9.6 0.00 0.00 0.00 50 1007.0
20260504195758 72 199 0.9 9.6 0.00 0.00 0.00 53 1007.0
20260504195659 72 200 0.9 9.6 0.00 0.00 0.00 48 1007.0
20260504195558 72 155 3.5 9.6 0.00 0.00 0.00 49 1007.0
20260504195501 72 288 6.1 9.6 0.00 0.00 0.00 49 1007.0
20260504195359 72 264 2.6 9.6 0.00 0.00 0.00 51 1007.0
20260504195300 72 183 6.1 9.6 0.00 0.00 0.00 48 1007.1
20260504195159 72 187 7.0 7.8 0.00 0.00 0.00 48 1007.2
20260504195100 72 195 4.3 7.8 0.00 0.00 0.00 48 1007.2
20260504194959 72 257 4.3 7.8 0.00 0.00 0.00 49 1007.2
20260504194858 72 144 7.8 7.8 0.00 0.00 0.00 49 1007.3
20260504194759 72 202 2.6 6.1 0.00 0.00 0.00 49 1007.2
20260504194659 72 298 3.5 7.8 0.00 0.00 0.00 49 1007.2
20260504194559 72 296 4.3 7.8 0.00 0.00 0.00 52 1007.3
20260504194500 72 281 2.6 7.8 0.00 0.00 0.00 49 1007.2
20260504194400 72 133 3.5 7.8 0.00 0.00 0.00 49 1007.3
20260504194259 72 176 3.5 7.8 0.00 0.00 0.00 49 1007.3
20260504194158 71 113 1.7 7.8 0.00 0.00 0.00 49 1007.3
20260504194059 71 201 1.7 7.8 0.00 0.00 0.00 50 1007.3
20260504193859 71 159 4.3 7.8 0.00 0.00 0.00 51 1007.3
20260504193658 71 170 5.2 8.7 0.00 0.00 0.00 50 1007.4
20260504193559 71 261 1.7 8.7 0.00 0.00 0.00 51 1007.5
20260504193500 71 267 1.7 8.7 0.00 0.00 0.00 52 1007.5
20260504193358 71 262 1.7 8.7 0.00 0.00 0.00 50 1007.5
20260504193257 71 195 2.6 8.7 0.00 0.00 0.00 51 1007.5
20260504193159 71 195 1.7 8.7 0.00 0.00 0.00 49 1007.5
20260504193058 71 309 0.9 8.7 0.00 0.00 0.00 50 1007.5
20260504192959 71 139 0.9 8.7 0.00 0.00 0.00 51 1007.5
20260504192857 71 296 3.5 8.7 0.00 0.00 0.00 49 1007.5
20260504192758 71 183 7.0 8.7 0.00 0.00 0.00 50 1007.5
20260504192658 71 183 1.7 7.0 0.00 0.00 0.00 51 1007.4
20260504192502 71 183 1.7 7.0 0.00 0.00 0.00 49 1007.5
20260504192300 71 187 2.6 7.0 0.00 0.00 0.00 50 1007.6
20260504192158 71 228 0.9 7.0 0.00 0.00 0.00 51 1007.6
20260504192058 71 113 1.7 7.0 0.00 0.00 0.00 50 1007.6
20260504191859 71 301 2.6 7.0 0.00 0.00 0.00 49 1007.6
20260504191759 71 182 4.3 7.0 0.00 0.00 0.00 49 1007.6
20260504191700 71 175 2.6 7.0 0.00 0.00 0.00 51 1007.7
20260504191558 71 234 0.9 6.1 0.00 0.00 0.00 50 1007.8
20260504191459 71 227 1.7 6.1 0.00 0.00 0.00 53 1007.8
20260504191357 71 265 0.9 6.1 0.00 0.00 0.00 49 1007.8
20260504191259 71 265 1.7 6.1 0.00 0.00 0.00 51 1007.8
20260504191158 71 265 0.9 6.1 0.00 0.00 0.00 50 1007.8
20260504190858 71 234 1.7 6.1 0.00 0.00 0.00 50 1007.8
20260504190758 71 150 2.6 6.1 0.00 0.00 0.00 52 1007.8
20260504190558 71 226 1.7 6.1 0.00 0.00 0.00 51 1007.8
20260504190459 71 145 0.0 6.1 0.00 0.00 0.00 51 1007.8
20260504190258 71 207 2.6 7.0 0.00 0.00 0.00 50 1007.8
20260504190159 71 141 2.6 7.0 0.00 0.00 0.00 50 1007.8
20260504190058 71 155 2.6 7.8 0.00 0.00 0.00 54 1007.9
20260504185959 71 221 2.6 7.8 0.00 0.00 0.00 52 1007.9
20260504185759 71 202 0.9 7.8 0.00 0.00 0.00 54 1007.9
20260504185700 71 202 0.0 7.8 0.00 0.00 0.00 50 1008.0
20260504185600 71 202 2.6 7.8 0.00 0.00 0.00 49 1008.1
20260504185458 71 194 2.6 7.8 0.00 0.00 0.00 49 1008.1
20260504185358 71 229 1.7 7.8 0.00 0.00 0.00 49 1008.1
20260504185258 71 267 3.5 7.8 0.00 0.00 0.00 50 1008.2
20260504185158 71 262 6.1 7.8 0.00 0.00 0.00 51 1008.1
20260504185057 71 172 1.7 7.0 0.00 0.00 0.00 50 1008.1
20260504185000 71 175 1.7 7.0 0.00 0.00 0.00 50 1008.1
20260504184900 71 193 1.7 7.0 0.00 0.00 0.00 50 1008.1
20260504184757 72 192 1.7 7.0 0.00 0.00 0.00 49 1008.2
20260504184658 72 173 2.6 7.0 0.00 0.00 0.00 48 1008.2
20260504184357 72 213 1.7 7.0 0.00 0.00 0.00 48 1008.3
20260504184258 72 211 2.6 7.0 0.00 0.00 0.00 48 1008.3
20260504184159 72 126 4.3 7.0 0.00 0.00 0.00 51 1008.2
20260504184058 72 123 0.9 7.0 0.00 0.00 0.00 49 1008.2
20260504183859 72 198 6.1 7.0 0.00 0.00 0.00 49 1008.3
20260504183759 72 223 1.7 5.2 0.00 0.00 0.00 53 1008.3
20260504183559 71 205 1.7 5.2 0.00 0.00 0.00 51 1008.3
20260504183459 71 192 2.6 5.2 0.00 0.00 0.00 50 1008.3
20260504183359 71 212 1.7 6.1 0.00 0.00 0.00 51 1008.3
20260504183259 71 239 1.7 6.1 0.00 0.00 0.00 51 1008.4
20260504183158 71 200 3.5 6.1 0.00 0.00 0.00 48 1008.4
20260504183057 71 189 1.7 6.1 0.00 0.00 0.00 49 1008.4
20260504183000 71 188 3.5 6.1 0.00 0.00 0.00 49 1008.4
20260504182758 71 57 1.7 7.8 0.00 0.00 0.00 48 1008.4
20260504182658 71 232 1.7 7.8 0.00 0.00 0.00 49 1008.4
20260504182558 71 232 3.5 7.8 0.00 0.00 0.00 50 1008.4
20260504182505 71 181 3.5 7.8 0.00 0.00 0.00 50 1008.5
20260504182258 71 150 4.3 7.8 0.00 0.00 0.00 51 1008.6
20260504182158 71 259 0.9 7.8 0.00 0.00 0.00 52 1008.6
20260504181759 71 302 1.7 5.2 0.00 0.00 0.00 50 1008.6
20260504181659 71 161 1.7 5.2 0.00 0.00 0.00 50 1008.7
20260504181559 71 137 4.3 5.2 0.00 0.00 0.00 51 1008.7
20260504181358 70 58 0.9 5.2 0.00 0.00 0.00 52 1008.7
20260504181258 70 58 0.9 4.3 0.00 0.00 0.00 51 1008.7
20260504181159 70 300 1.7 4.3 0.00 0.00 0.00 51 1008.8
20260504181058 70 312 1.7 4.3 0.00 0.00 0.00 50 1008.8
20260504181000 71 312 0.9 6.1 0.00 0.00 0.00 50 1008.7
20260504180858 71 312 0.9 6.1 0.00 0.00 0.00 48 1008.6
20260504180759 71 315 2.6 6.1 0.00 0.00 0.00 49 1008.8
20260504180658 71 265 1.7 6.1 0.00 0.00 0.00 49 1008.9
20260504180558 71 300 3.5 6.1 0.00 0.00 0.00 50 1008.8
20260504180500 71 242 0.9 6.1 0.00 0.00 0.00 51 1008.8
20260504180358 71 178 1.7 6.1 0.00 0.00 0.00 51 1008.8
20260504180259 71 178 0.9 7.0 0.00 0.00 0.00 51 1008.9
20260504180005 70 132 4.3 7.0 0.00 0.00 0.00 49 1009.0
20260504175859 70 172 0.9 7.0 0.00 0.00 0.00 51 1009.0
20260504175759 70 161 3.5 7.0 0.00 0.00 0.00 55 1008.9
20260504175658 70 136 0.9 7.0 0.00 0.00 0.00 52 1009.0
20260504175459 70 150 2.6 9.6 0.00 0.00 0.00 48 1009.0
20260504175359 70 182 7.0 9.6 0.00 0.00 0.00 50 1009.1
20260504175159 70 190 0.0 9.6 0.00 0.00 0.00 52 1009.1
20260504175058 70 143 1.7 9.6 0.00 0.00 0.00 48 1009.2
20260504174858 70 188 3.5 9.6 0.00 0.00 0.00 51 1009.2
20260504174759 70 341 3.5 9.6 0.00 0.00 0.00 49 1009.1
20260504174658 70 164 3.5 9.6 0.00 0.00 0.00 48 1009.2
20260504174558 70 149 7.8 9.6 0.00 0.00 0.00 50 1009.2
20260504174500 70 155 1.7 9.6 0.00 0.00 0.00 49 1009.2
20260504174359 70 178 0.9 9.6 0.00 0.00 0.00 50 1009.2
20260504174257 70 195 1.7 9.6 0.00 0.00 0.00 48 1009.3
20260504174058 70 220 3.5 9.6 0.00 0.00 0.00 49 1009.3
20260504174000 70 115 7.8 7.8 0.00 0.00 0.00 51 1009.3
20260504173858 70 285 0.0 6.1 0.00 0.00 0.00 50 1009.3
20260504173758 70 298 2.6 6.1 0.00 0.00 0.00 49 1009.4
20260504173657 70 155 2.6 5.2 0.00 0.00 0.00 49 1009.3
20260504173600 70 256 1.7 5.2 0.00 0.00 0.00 51 1009.4
20260504173500 70 289 2.6 6.1 0.00 0.00 0.00 51 1009.4
20260504173258 70 193 2.6 8.7 0.00 0.00 0.00 54 1009.3
20260504173157 70 168 0.9 8.7 0.00 0.00 0.00 51 1009.3
20260504173059 70 168 1.7 8.7 0.00 0.00 0.00 50 1009.3
20260504172959 69 167 0.9 8.7 0.00 0.00 0.00 48 1009.3
20260504172858 70 172 5.2 8.7 0.00 0.00 0.00 48 1009.4
20260504172757 70 147 3.5 8.7 0.00 0.00 0.00 52 1009.4
20260504172657 70 214 0.9 8.7 0.00 0.00 0.00 48 1009.4
20260504172558 70 165 5.2 8.7 0.00 0.00 0.00 49 1009.4
20260504172358 70 178 1.7 7.0 0.00 0.00 0.00 50 1009.3
20260504172258 70 176 1.7 7.0 0.00 0.00 0.00 49 1009.4
20260504172159 70 169 3.5 7.0 0.00 0.00 0.00 49 1009.4
20260504172100 70 162 0.9 7.0 0.00 0.00 0.00 49 1009.3
20260504172000 70 235 0.9 7.0 0.00 0.00 0.00 52 1009.4
20260504171900 70 238 1.7 7.0 0.00 0.00 0.00 52 1009.5
20260504171758 70 238 2.6 7.8 0.00 0.00 0.00 51 1009.5
20260504171659 70 198 1.7 7.8 0.00 0.00 0.00 51 1009.5
20260504171559 70 222 1.7 7.8 0.00 0.00 0.00 53 1009.5
20260504171501 70 233 0.9 7.8 0.00 0.00 0.00 53 1009.4
20260504171359 69 187 1.7 7.8 0.00 0.00 0.00 50 1009.4
20260504171257 69 207 2.6 11.3 0.00 0.00 0.00 52 1009.4
20260504171201 69 262 0.9 11.3 0.00 0.00 0.00 50 1009.4
20260504170858 69 157 5.2 11.3 0.00 0.00 0.00 49 1009.6
20260504170657 69 268 0.9 11.3 0.00 0.00 0.00 49 1009.6
20260504170558 69 252 6.1 11.3 0.00 0.00 0.00 49 1009.6
20260504170500 69 144 3.5 11.3 0.00 0.00 0.00 49 1009.6
20260504170359 69 157 6.1 11.3 0.00 0.00 0.00 50 1009.7
20260504170258 69 154 3.5 6.1 0.00 0.00 0.00 48 1009.7
20260504160359 67 185 2.6 9.6 0.00 0.00 0.00 52 1010.7
20260504160258 67 249 2.6 9.6 0.00 0.00 0.00 51 1010.7
20260504160159 67 194 2.6 9.6 0.00 0.00 0.00 49 1010.7
20260504150859 63 248 1.7 5.2 0.00 0.00 0.00 58 1011.4
20260504150658 63 284 0.9 5.2 0.00 0.00 0.00 56 1011.3
20260504150558 63 284 0.9 5.2 0.00 0.00 0.00 53 1011.4
20260504150500 63 271 2.6 5.2 0.00 0.00 0.00 52 1011.4
20260504150358 63 271 3.5 5.2 0.00 0.00 0.00 53 1011.4
20260504150258 63 297 1.7 5.2 0.00 0.00 0.00 55 1011.4
20260504150159 63 162 1.7 5.2 0.00 0.00 0.00 57 1011.4
20260504141100 58 159 3.5 5.2 0.00 0.00 0.00 55 1012.0
20260504141001 58 131 3.5 5.2 0.00 0.00 0.00 56 1012.0
20260504140900 58 113 3.5 5.2 0.00 0.00 0.00 56 1012.1
20260504140658 58 222 1.7 6.1 0.00 0.00 0.00 57 1012.0
20260504140558 58 222 2.6 6.1 0.00 0.00 0.00 57 1012.0
20260504140259 58 175 2.6 6.1 0.00 0.00 0.00 55 1012.0
20260504140159 58 177 2.6 6.1 0.00 0.00 0.00 56 1012.0
20260504130800 54 173 0.9 2.6 0.00 0.00 0.00 58 1012.5
20260504130659 54 174 1.7 2.6 0.00 0.00 0.00 58 1012.4
20260504130559 54 173 0.9 2.6 0.00 0.00 0.00 60 1012.4
20260504130500 54 173 1.7 2.6 0.00 0.00 0.00 61 1012.5
20260504130357 54 174 0.0 2.6 0.00 0.00 0.00 64 1012.5
20260504130259 54 173 2.6 2.6 0.00 0.00 0.00 64 1012.4
20260504130158 54 173 0.0 2.6 0.00 0.00 0.00 66 1012.5
20260504120301 45 146 0.0 0.0 0.00 0.00 0.00 82 1012.8
20260504120158 45 146 0.0 0.0 0.00 0.00 0.00 81 1012.8
20260504110557 39 146 0.0 0.0 0.00 0.00 0.00 93 1012.6
20260504110459 38 146 0.0 0.0 0.00 0.00 0.00 93 1012.6
20260504110357 38 146 0.0 0.0 0.00 0.00 0.00 93 1012.5
20260504110257 38 146 0.0 0.0 0.00 0.00 0.00 93 1012.6
20260504100558 35 146 0.0 0.0 0.00 0.00 0.00 93 1012.9
20260504100459 35 146 0.0 0.0 0.00 0.00 0.00 93 1012.9
20260504100357 35 146 0.0 0.0 0.00 0.00 0.00 93 1012.9
20260504100158 35 146 0.0 0.0 0.00 0.00 0.00 93 1012.8
20260504082001 36 146 0.0 0.0 0.00 0.00 0.00 92 1013.0
20260504081858 36 146 0.0 0.0 0.00 0.00 0.00 91 1013.0
20260504081758 36 146 0.0 0.0 0.00 0.00 0.00 91 1013.0
20260504081659 36 146 0.0 0.0 0.00 0.00 0.00 91 1013.0
20260504081600 36 146 0.0 0.0 0.00 0.00 0.00 91 1013.0
20260504081500 36 146 0.0 0.0 0.00 0.00 0.00 91 1013.0
20260504081358 36 146 0.0 0.0 0.00 0.00 0.00 91 1013.0
20260504081258 36 146 0.0 0.0 0.00 0.00 0.00 91 1013.0
20260504081159 36 146 0.0 0.0 0.00 0.00 0.00 91 1013.0
20260504081057 36 146 0.0 0.0 0.00 0.00 0.00 91 1013.0
20260504080858 36 146 0.0 0.0 0.00 0.00 0.00 91 1013.0
20260504080758 36 146 0.0 0.0 0.00 0.00 0.00 91 1013.0
20260504080700 36 146 0.0 0.0 0.00 0.00 0.00 91 1013.0
20260504080459 36 146 0.0 0.0 0.00 0.00 0.00 91 1013.1
20260504080358 36 146 0.0 0.0 0.00 0.00 0.00 91 1013.1
20260504080158 36 146 0.0 1.7 0.00 0.00 0.00 91 1013.1
20260504070356 37 146 0.9 1.7 0.00 0.00 0.00 90 1013.0
20260504070258 37 146 0.9 1.7 0.00 0.00 0.00 90 1013.0
20260504070157 37 146 0.0 1.7 0.00 0.00 0.00 90 1013.0
20260504050658 40 146 0.0 2.6 0.00 0.00 0.00 86 1013.0
20260504050557 40 146 0.0 2.6 0.00 0.00 0.00 86 1013.0
20260504050458 40 146 1.7 2.6 0.00 0.00 0.00 86 1013.1
20260504050356 40 146 0.9 2.6 0.00 0.00 0.00 86 1013.0
20260504050257 40 146 1.7 2.6 0.00 0.00 0.00 86 1013.1
20260504045857 40 146 1.7 2.6 0.00 0.00 0.00 85 1013.0
20260504045758 40 146 0.9 2.6 0.00 0.00 0.00 85 1013.0
20260504045658 40 146 1.7 2.6 0.00 0.00 0.00 85 1013.0
20260504045556 40 146 0.0 2.6 0.00 0.00 0.00 85 1013.0
20260504045458 40 146 1.7 1.7 0.00 0.00 0.00 85 1012.9
20260504045356 40 146 0.0 1.7 0.00 0.00 0.00 85 1013.0
20260504045058 40 146 0.0 2.6 0.00 0.00 0.00 85 1013.0
20260504044958 40 146 0.9 2.6 0.00 0.00 0.00 85 1013.0
20260504044857 40 146 1.7 2.6 0.00 0.00 0.00 85 1013.0
20260504044656 40 146 0.0 2.6 0.00 0.00 0.00 85 1013.0
20260504044459 40 146 0.9 2.6 0.00 0.00 0.00 85 1013.0
20260504044356 40 146 0.9 2.6 0.00 0.00 0.00 85 1013.0
20260504044257 40 146 0.9 1.7 0.00 0.00 0.00 85 1013.0
20260504044158 40 146 0.9 1.7 0.00 0.00 0.00 85 1013.0
20260504044057 40 146 0.9 1.7 0.00 0.00 0.00 85 1013.0
20260504043958 40 146 0.9 2.6 0.00 0.00 0.00 85 1013.0
20260504043856 40 146 0.9 2.6 0.00 0.00 0.00 85 1013.0
20260504043657 40 146 0.9 2.6 0.00 0.00 0.00 85 1012.9
20260504043557 41 146 1.7 2.6 0.00 0.00 0.00 85 1013.0
20260504043459 41 146 0.9 2.6 0.00 0.00 0.00 85 1012.9
20260504043357 41 146 1.7 2.6 0.00 0.00 0.00 85 1012.9
20260504043257 41 146 0.9 2.6 0.00 0.00 0.00 85 1012.9
20260504043156 41 146 1.7 2.6 0.00 0.00 0.00 85 1012.9
20260504043055 41 146 1.7 1.7 0.00 0.00 0.00 85 1012.8
20260504042957 41 146 0.9 1.7 0.00 0.00 0.00 85 1012.9
20260504042857 40 146 0.9 2.6 0.00 0.00 0.00 84 1012.8
20260504042758 40 146 1.7 2.6 0.00 0.00 0.00 84 1012.9
20260504042657 40 146 0.9 2.6 0.00 0.00 0.00 85 1012.9
20260504042557 40 146 1.7 2.6 0.00 0.00 0.00 85 1012.8
20260504042458 40 146 0.9 2.6 0.00 0.00 0.00 85 1012.9
20260504042258 40 146 0.9 2.6 0.00 0.00 0.00 85 1012.9
20260504042157 40 146 1.7 2.6 0.00 0.00 0.00 85 1012.8
20260504042057 40 146 1.7 2.6 0.00 0.00 0.00 85 1012.8
20260504041958 40 146 0.0 2.6 0.00 0.00 0.00 85 1012.9
20260504041756 40 146 0.9 2.6 0.00 0.00 0.00 85 1012.9
20260504041657 40 146 1.7 2.6 0.00 0.00 0.00 85 1012.9
20260504041556 40 146 1.7 2.6 0.00 0.00 0.00 85 1012.9
20260504041500 40 146 1.7 2.6 0.00 0.00 0.00 85 1012.9
20260504041258 40 146 0.9 2.6 0.00 0.00 0.00 85 1012.8
20260504041157 40 146 0.9 2.6 0.00 0.00 0.00 84 1012.9
20260504041058 40 146 0.9 2.6 0.00 0.00 0.00 84 1012.9
20260504040958 40 146 0.9 2.6 0.00 0.00 0.00 84 1012.9
20260504040857 40 146 1.7 2.6 0.00 0.00 0.00 84 1012.9
20260504040756 40 146 1.7 2.6 0.00 0.00 0.00 84 1012.9
20260504040657 40 146 2.6 2.6 0.00 0.00 0.00 84 1013.0
20260504040557 41 146 2.6 2.6 0.00 0.00 0.00 84 1013.0
20260504040459 41 209 0.0 1.7 0.00 0.00 0.00 84 1012.9
20260504040359 41 209 0.0 1.7 0.00 0.00 0.00 84 1012.9
20260504040257 41 209 0.0 1.7 0.00 0.00 0.00 84 1012.9
20260504040157 41 209 0.0 1.7 0.00 0.00 0.00 84 1012.9
20260504040057 41 209 0.9 1.7 0.00 0.00 0.00 84 1012.9
20260504035900 41 209 0.9 1.7 0.00 0.00 0.00 84 1012.9
20260504035800 41 209 0.9 1.7 0.00 0.00 0.00 84 1012.9
20260504035700 41 209 0.0 1.7 0.00 0.00 0.00 83 1012.8
20260504035558 41 209 0.9 1.7 0.00 0.00 0.00 83 1012.9
20260504035400 41 209 0.9 1.7 0.00 0.00 0.00 83 1012.8
20260504035259 41 209 0.0 2.6 0.00 0.00 0.00 83 1012.8
20260504035159 41 209 0.9 2.6 0.00 0.00 0.00 83 1012.8
20260504035005 41 209 0.0 2.6 0.00 0.00 0.00 83 1012.8
20260504034900 41 209 0.0 2.6 0.00 0.00 0.00 83 1012.8
20260504034800 41 209 0.9 2.6 0.00 0.00 0.00 83 1012.8
20260504034659 41 209 1.7 2.6 0.00 0.00 0.00 82 1012.8
20260504034559 41 209 0.9 2.6 0.00 0.00 0.00 82 1012.8
20260504034501 41 209 0.0 2.6 0.00 0.00 0.00 82 1012.8
20260504034400 41 209 0.9 2.6 0.00 0.00 0.00 82 1012.8
20260504034259 41 209 1.7 1.7 0.00 0.00 0.00 82 1012.8
20260504034100 41 209 0.0 0.9 0.00 0.00 0.00 82 1012.8
20260504034000 42 209 0.0 0.9 0.00 0.00 0.00 82 1012.8
20260504033858 42 209 0.0 0.9 0.00 0.00 0.00 82 1012.7
20260504033700 42 209 0.0 0.9 0.00 0.00 0.00 82 1012.7
20260504033559 42 209 0.0 0.9 0.00 0.00 0.00 82 1012.7
20260504033504 42 209 0.0 0.9 0.00 0.00 0.00 82 1012.7
20260504033400 42 209 0.0 0.0 0.00 0.00 0.00 82 1012.7
20260504033259 42 209 0.0 0.0 0.00 0.00 0.00 81 1012.7
20260504033159 42 209 0.0 0.0 0.00 0.00 0.00 81 1012.7
20260504033059 42 209 0.0 0.0 0.00 0.00 0.00 81 1012.7
20260504033005 42 209 0.0 0.0 0.00 0.00 0.00 81 1012.7
20260504032859 42 209 0.0 0.0 0.00 0.00 0.00 81 1012.7
20260504032759 42 209 0.0 0.0 0.00 0.00 0.00 81 1012.7
20260504032659 42 209 0.0 0.0 0.00 0.00 0.00 81 1012.7
20260504032559 42 209 0.0 0.0 0.00 0.00 0.00 81 1012.7
20260504032504 42 209 0.0 0.9 0.00 0.00 0.00 81 1012.7
20260504032359 42 209 0.0 1.7 0.00 0.00 0.00 80 1012.6
20260504032258 42 209 0.0 1.7 0.00 0.00 0.00 80 1012.7
20260504032201 42 209 0.0 1.7 0.00 0.00 0.00 80 1012.6
20260504032059 42 209 0.0 1.7 0.00 0.00 0.00 80 1012.7
20260504032003 42 209 0.0 1.7 0.00 0.00 0.00 80 1012.7
20260504031900 42 209 0.0 1.7 0.00 0.00 0.00 80 1012.7
20260504031759 42 209 0.0 1.7 0.00 0.00 0.00 79 1012.7
20260504031659 42 209 0.0 1.7 0.00 0.00 0.00 79 1012.6
20260504031559 42 209 0.0 1.7 0.00 0.00 0.00 79 1012.6
20260504031500 42 209 0.9 1.7 0.00 0.00 0.00 79 1012.6
20260504031359 43 209 0.9 1.7 0.00 0.00 0.00 79 1012.6
20260504031259 43 209 0.9 1.7 0.00 0.00 0.00 79 1012.6
20260504031159 43 209 0.0 1.7 0.00 0.00 0.00 79 1012.6
20260504031059 43 209 0.0 1.7 0.00 0.00 0.00 79 1012.5
20260504031002 43 209 0.9 1.7 0.00 0.00 0.00 79 1012.6
20260504030859 43 209 0.0 1.7 0.00 0.00 0.00 78 1012.5
20260504030759 43 209 0.9 1.7 0.00 0.00 0.00 79 1012.5
20260504030659 43 209 0.0 1.7 0.00 0.00 0.00 78 1012.5
20260504030602 43 209 1.7 1.7 0.00 0.00 0.00 78 1012.5
20260504030500 43 209 0.9 1.7 0.00 0.00 0.00 78 1012.5
20260504030359 43 209 0.9 1.7 0.00 0.00 0.00 78 1012.5
20260504030259 43 209 0.9 1.7 0.00 0.00 0.00 78 1012.5
20260504030158 43 209 0.0 1.7 0.00 0.00 0.00 78 1012.5
20260504030059 43 227 0.9 1.7 0.00 0.00 0.00 78 1012.4
20260504030003 43 227 1.7 1.7 0.00 0.00 0.00 78 1012.5
20260504025859 43 227 0.9 1.7 0.00 0.00 0.00 78 1012.5
20260504025759 43 227 0.0 1.7 0.00 0.00 0.00 78 1012.5
20260504025659 43 227 0.0 1.7 0.00 0.00 0.00 78 1012.5
20260504025559 43 227 0.0 1.7 0.00 0.00 0.00 78 1012.4
20260504025400 43 227 0.0 1.7 0.00 0.00 0.00 78 1012.5
20260504025259 43 227 0.0 1.7 0.00 0.00 0.00 78 1012.5
20260504025159 43 227 0.0 1.7 0.00 0.00 0.00 78 1012.5
20260504025059 43 227 1.7 1.7 0.00 0.00 0.00 78 1012.5
20260504024900 43 227 1.7 1.7 0.00 0.00 0.00 78 1012.5
20260504024800 43 227 0.9 1.7 0.00 0.00 0.00 78 1012.5
20260504024559 43 227 0.0 0.0 0.00 0.00 0.00 77 1012.5
20260504024359 44 227 0.0 0.0 0.00 0.00 0.00 77 1012.6
20260504024259 44 227 0.0 0.0 0.00 0.00 0.00 77 1012.5
20260504024059 44 227 0.0 0.0 0.00 0.00 0.00 76 1012.5
20260504024004 44 227 0.0 0.0 0.00 0.00 0.00 76 1012.5
20260504023900 44 227 0.0 0.0 0.00 0.00 0.00 76 1012.5
20260504023759 44 227 0.0 0.0 0.00 0.00 0.00 76 1012.5
20260504023659 44 227 0.0 0.0 0.00 0.00 0.00 76 1012.5
20260504023559 44 227 0.0 0.0 0.00 0.00 0.00 76 1012.5
20260504023502 44 227 0.0 0.0 0.00 0.00 0.00 75 1012.5
20260504023400 44 227 0.0 0.0 0.00 0.00 0.00 75 1012.5
20260504023259 44 227 0.0 0.0 0.00 0.00 0.00 75 1012.5
20260504023159 44 227 0.0 1.7 0.00 0.00 0.00 75 1012.5
20260504023059 44 227 0.0 2.6 0.00 0.00 0.00 75 1012.5
20260504022859 44 227 0.0 2.6 0.00 0.00 0.00 75 1012.5
20260504022759 44 227 0.0 2.6 0.00 0.00 0.00 75 1012.5
20260504022658 44 227 0.0 2.6 0.00 0.00 0.00 75 1012.4
20260504022559 44 227 0.0 2.6 0.00 0.00 0.00 75 1012.5
20260504022504 44 227 0.0 2.6 0.00 0.00 0.00 75 1012.5
20260504022359 44 227 0.0 2.6 0.00 0.00 0.00 75 1012.5
20260504022259 45 227 0.0 2.6 0.00 0.00 0.00 75 1012.5
20260504022200 45 227 0.9 2.6 0.00 0.00 0.00 75 1012.5
20260504022004 45 227 1.7 2.6 0.00 0.00 0.00 74 1012.5
20260504021859 45 227 0.0 2.6 0.00 0.00 0.00 74 1012.5
20260504021758 45 227 1.7 2.6 0.00 0.00 0.00 73 1012.5
20260504021659 45 227 0.0 2.6 0.00 0.00 0.00 74 1012.5
20260504021600 45 227 1.7 2.6 0.00 0.00 0.00 74 1012.5
20260504021502 45 227 1.7 2.6 0.00 0.00 0.00 73 1012.5
20260504021359 45 227 2.6 2.6 0.00 0.00 0.00 74 1012.5
20260504021259 45 227 1.7 2.6 0.00 0.00 0.00 73 1012.5
20260504021200 45 227 1.7 2.6 0.00 0.00 0.00 73 1012.5
20260504021059 45 227 1.7 2.6 0.00 0.00 0.00 74 1012.5
20260504021001 45 227 1.7 2.6 0.00 0.00 0.00 74 1012.5
20260504020859 45 227 1.7 2.6 0.00 0.00 0.00 73 1012.5
20260504020759 46 227 0.9 1.7 0.00 0.00 0.00 73 1012.5
20260504020659 46 227 1.7 1.7 0.00 0.00 0.00 73 1012.5
20260504020559 46 227 0.9 1.7 0.00 0.00 0.00 73 1012.5
20260504020500 46 227 0.9 1.7 0.00 0.00 0.00 72 1012.5
20260504020359 46 227 0.9 1.7 0.00 0.00 0.00 72 1012.5
20260504020301 46 227 0.9 1.7 0.00 0.00 0.00 71 1012.5
20260504020059 46 227 0.0 1.7 0.00 0.00 0.00 71 1012.5
20260504015858 46 227 0.9 1.7 0.00 0.00 0.00 72 1012.5
20260504015659 46 227 0.0 1.7 0.00 0.00 0.00 72 1012.5
20260504015559 46 227 0.0 1.7 0.00 0.00 0.00 72 1012.5
20260504015500 46 227 0.0 1.7 0.00 0.00 0.00 72 1012.5
20260504015259 46 227 0.0 1.7 0.00 0.00 0.00 72 1012.5
20260504015159 46 227 0.0 1.7 0.00 0.00 0.00 72 1012.5
20260504015058 46 227 0.0 1.7 0.00 0.00 0.00 72 1012.5
20260504015000 46 227 0.0 1.7 0.00 0.00 0.00 72 1012.5
20260504014859 46 227 0.0 1.7 0.00 0.00 0.00 72 1012.5
20260504014758 46 227 0.9 1.7 0.00 0.00 0.00 72 1012.5
20260504014659 46 227 0.9 1.7 0.00 0.00 0.00 72 1012.4
20260504014557 46 227 1.7 1.7 0.00 0.00 0.00 71 1012.5
20260504014501 46 227 0.0 1.7 0.00 0.00 0.00 71 1012.5
20260504014358 46 227 0.0 1.7 0.00 0.00 0.00 71 1012.5
20260504014258 46 227 0.0 1.7 0.00 0.00 0.00 71 1012.5
20260504014157 46 227 0.0 1.7 0.00 0.00 0.00 71 1012.5
20260504014059 46 227 0.0 1.7 0.00 0.00 0.00 70 1012.4
20260504014001 46 227 0.9 1.7 0.00 0.00 0.00 70 1012.5
20260504013758 46 227 0.0 1.7 0.00 0.00 0.00 70 1012.3
20260504013557 47 227 0.9 1.7 0.00 0.00 0.00 70 1012.4
20260504013500 47 227 0.9 1.7 0.00 0.00 0.00 69 1012.3
20260504013358 47 227 1.7 1.7 0.00 0.00 0.00 69 1012.3
20260504013259 47 227 0.9 1.7 0.00 0.00 0.00 69 1012.3
20260504013158 47 227 0.9 1.7 0.00 0.00 0.00 69 1012.3
20260504013057 47 227 0.0 1.7 0.00 0.00 0.00 69 1012.3
20260504013000 47 227 0.0 1.7 0.00 0.00 0.00 68 1012.3
20260504012858 47 227 0.9 1.7 0.00 0.00 0.00 68 1012.3
20260504012258 48 227 0.0 1.7 0.00 0.00 0.00 67 1012.3
20260504012158 48 227 1.7 1.7 0.00 0.00 0.00 67 1012.3
20260504012058 48 227 0.9 1.7 0.00 0.00 0.00 67 1012.3
20260504011959 48 227 0.9 1.7 0.00 0.00 0.00 67 1012.3
20260504011859 48 227 0.9 1.7 0.00 0.00 0.00 66 1012.2
20260504011758 48 227 1.7 2.6 0.00 0.00 0.00 66 1012.2
20260504011559 48 227 0.9 2.6 0.00 0.00 0.00 66 1012.2
20260504011459 48 227 1.7 2.6 0.00 0.00 0.00 66 1012.2
20260504011259 49 227 0.9 2.6 0.00 0.00 0.00 65 1012.2
20260504011058 49 231 0.9 2.6 0.00 0.00 0.00 65 1012.2
20260504011000 49 231 1.7 2.6 0.00 0.00 0.00 65 1012.2
20260504010859 49 231 1.7 2.6 0.00 0.00 0.00 64 1012.2
20260504010759 49 231 0.9 2.6 0.00 0.00 0.00 64 1012.1
20260504010659 49 231 0.0 2.6 0.00 0.00 0.00 64 1012.1
20260504010559 49 231 0.9 2.6 0.00 0.00 0.00 64 1012.2
20260504010500 50 231 0.9 2.6 0.00 0.00 0.00 63 1012.1
20260504010359 50 231 0.0 2.6 0.00 0.00 0.00 63 1012.1
20260504010258 50 231 0.0 2.6 0.00 0.00 0.00 63 1012.1
20260504010159 50 231 1.7 1.7 0.00 0.00 0.00 62 1012.1
20260504010058 50 231 0.0 1.7 0.00 0.00 0.00 62 1012.1
20260504010000 50 231 0.9 1.7 0.00 0.00 0.00 62 1012.1
20260504005757 50 231 0.9 1.7 0.00 0.00 0.00 61 1012.1
20260504005659 51 231 1.7 1.7 0.00 0.00 0.00 61 1012.1
20260504005559 51 231 0.9 1.7 0.00 0.00 0.00 61 1012.1
20260504005458 51 231 1.7 1.7 0.00 0.00 0.00 61 1012.1
20260504005358 51 231 0.0 0.9 0.00 0.00 0.00 61 1012.1
20260504005258 51 231 0.0 0.0 0.00 0.00 0.00 61 1012.1
20260504005158 51 231 0.0 0.0 0.00 0.00 0.00 60 1012.1
20260504005001 51 231 0.0 0.9 0.00 0.00 0.00 59 1012.1
20260504004859 51 231 0.0 0.9 0.00 0.00 0.00 59 1012.0
20260504004758 52 231 0.0 0.9 0.00 0.00 0.00 59 1012.0
20260504004658 52 231 0.0 0.9 0.00 0.00 0.00 59 1012.0
20260504004558 52 231 0.0 0.9 0.00 0.00 0.00 59 1012.1
20260504004459 52 231 0.0 0.9 0.00 0.00 0.00 59 1012.0
20260504004257 52 231 0.0 0.9 0.00 0.00 0.00 59 1012.0
20260504004159 52 231 0.0 0.9 0.00 0.00 0.00 58 1012.0
20260504004000 52 231 0.0 0.9 0.00 0.00 0.00 58 1012.0
20260504003857 52 231 0.9 0.9 0.00 0.00 0.00 57 1012.0
20260504003759 53 231 0.0 0.9 0.00 0.00 0.00 57 1012.0
20260504003658 53 231 0.0 0.9 0.00 0.00 0.00 56 1011.9
20260504003559 53 231 0.0 0.9 0.00 0.00 0.00 56 1011.9
20260504003459 53 231 0.9 0.9 0.00 0.00 0.00 57 1012.0
20260504003359 53 231 0.0 0.9 0.00 0.00 0.00 56 1011.9
20260504003159 53 231 0.9 0.9 0.00 0.00 0.00 57 1011.9
20260504003059 53 231 0.9 0.9 0.00 0.00 0.00 57 1011.9
20260504003000 53 231 0.0 0.9 0.00 0.00 0.00 56 1011.9
20260504002858 53 231 0.0 1.7 0.00 0.00 0.00 55 1011.9
20260504002759 53 231 0.9 1.7 0.00 0.00 0.00 56 1011.9
20260504002557 53 231 0.0 1.7 0.00 0.00 0.00 56 1011.9
20260504002258 54 231 0.0 1.7 0.00 0.00 0.00 55 1011.8
20260504001959 54 231 0.9 1.7 0.00 0.00 0.00 55 1011.7
20260504001758 54 227 0.9 1.7 0.00 0.00 0.00 55 1011.8
20260504001658 54 227 0.0 3.5 0.00 0.00 0.00 54 1011.8
20260504001557 54 227 0.0 3.5 0.00 0.00 0.00 53 1011.9
20260504001359 55 227 0.0 3.5 0.00 0.00 0.00 53 1011.8
20260504001259 55 227 0.9 3.5 0.00 0.00 0.00 52 1011.8
20260504001158 55 227 0.0 3.5 0.00 0.00 0.00 53 1011.7
20260504001057 55 227 0.0 3.5 0.00 0.00 0.00 52 1011.7
20260504000858 55 227 0.9 3.5 0.00 0.00 0.00 51 1011.7
20260504000759 55 254 1.7 3.5 0.00 0.00 0.00 52 1011.7
20260504000557 55 254 0.9 3.5 0.00 0.00 0.00 52 1011.7
20260504000500 55 254 0.0 3.5 0.00 0.00 0.00 51 1011.6
20260504000258 56 254 0.0 3.5 0.00 0.00 0.00 52 1011.6
20260504000058 56 256 3.5 3.5 0.00 0.00 0.00 51 1011.5
20260504000005 56 248 0.9 3.5 0.00 0.00 0.00 49 1011.5
20260503235900 56 248 1.7 3.5 0.00 0.00 0.00 50 1011.5
20260503235801 56 248 1.7 3.5 0.00 0.00 0.00 50 1011.5
20260503235559 56 246 0.9 3.5 0.00 0.00 0.00 49 1011.4
20260503235500 56 246 1.7 3.5 0.00 0.00 0.00 50 1011.5
20260503235359 56 246 0.9 3.5 0.00 0.00 0.00 49 1011.5
20260503235300 56 246 1.7 3.5 0.00 0.00 0.00 50 1011.5
20260503235200 56 246 0.9 3.5 0.00 0.00 0.00 51 1011.5
20260503235058 56 246 0.9 3.5 0.00 0.00 0.00 49 1011.4
20260503234901 56 244 0.9 2.6 0.00 0.00 0.00 50 1011.5
20260503234600 56 244 0.9 2.6 0.00 0.00 0.00 49 1011.4
20260503234501 56 244 0.9 2.6 0.00 0.00 0.00 49 1011.5
20260503234359 57 244 0.9 2.6 0.00 0.00 0.00 48 1011.4
20260503234258 57 244 0.9 2.6 0.00 0.00 0.00 48 1011.4
20260503234159 57 244 0.0 2.6 0.00 0.00 0.00 48 1011.4
20260503234058 57 244 1.7 2.6 0.00 0.00 0.00 50 1011.4
20260503234000 57 244 1.7 2.6 0.00 0.00 0.00 49 1011.4
20260503233859 57 244 0.9 2.6 0.00 0.00 0.00 49 1011.3
20260503233800 57 244 0.9 2.6 0.00 0.00 0.00 48 1011.4
20260503233658 57 244 1.7 2.6 0.00 0.00 0.00 49 1011.4
20260503233600 57 244 0.0 2.6 0.00 0.00 0.00 47 1011.4
20260503233504 57 247 0.9 2.6 0.00 0.00 0.00 47 1011.4
20260503233401 57 247 1.7 6.1 0.00 0.00 0.00 48 1011.4
20260503233259 57 247 1.7 6.1 0.00 0.00 0.00 48 1011.4
20260503233200 57 247 0.0 6.1 0.00 0.00 0.00 49 1011.4
20260503233101 57 247 0.0 6.1 0.00 0.00 0.00 49 1011.3
20260503233001 57 247 0.0 6.1 0.00 0.00 0.00 48 1011.4
20260503232800 57 247 0.9 6.1 0.00 0.00 0.00 48 1011.4
20260503232700 57 247 1.7 6.1 0.00 0.00 0.00 48 1011.4
20260503232600 58 247 2.6 6.1 0.00 0.00 0.00 47 1011.4
20260503232503 58 247 2.6 6.1 0.00 0.00 0.00 47 1011.3
20260503232400 58 247 0.9 3.5 0.00 0.00 0.00 46 1011.3
20260503232301 58 247 0.9 6.1 0.00 0.00 0.00 46 1011.3
20260503232159 58 252 2.6 6.1 0.00 0.00 0.00 47 1011.3
20260503232059 58 252 0.9 6.1 0.00 0.00 0.00 47 1011.3
20260503232004 58 252 0.9 6.1 0.00 0.00 0.00 47 1011.2
20260503231859 58 252 0.9 6.1 0.00 0.00 0.00 46 1011.2
20260503231759 58 252 2.6 6.1 0.00 0.00 0.00 47 1011.2
20260503231559 58 248 1.7 6.1 0.00 0.00 0.00 47 1011.2
20260503231500 58 232 3.5 6.1 0.00 0.00 0.00 46 1011.2
20260503231401 58 246 2.6 6.1 0.00 0.00 0.00 47 1011.2
20260503231259 58 250 0.9 6.1 0.00 0.00 0.00 47 1011.2
20260503231202 58 250 1.7 6.1 0.00 0.00 0.00 46 1011.2
20260503231059 58 250 1.7 6.1 0.00 0.00 0.00 46 1011.2
20260503231001 58 257 2.6 6.1 0.00 0.00 0.00 47 1011.2
20260503230859 58 258 2.6 6.1 0.00 0.00 0.00 46 1011.2
20260503230759 58 263 5.2 5.2 0.00 0.00 0.00 47 1011.2
20260503230659 58 265 1.7 6.1 0.00 0.00 0.00 48 1011.2
20260503230501 58 265 2.6 6.1 0.00 0.00 0.00 47 1011.2
20260503230400 58 262 2.6 6.1 0.00 0.00 0.00 46 1011.2
20260503230259 58 262 1.7 6.1 0.00 0.00 0.00 46 1011.2
20260503230059 58 262 0.9 6.1 0.00 0.00 0.00 46 1011.2
20260503230005 59 262 0.9 6.1 0.00 0.00 0.00 46 1011.2
20260503225859 59 262 2.6 6.1 0.00 0.00 0.00 45 1011.2
20260503225759 59 262 6.1 6.1 0.00 0.00 0.00 45 1011.2
20260503225659 59 269 6.1 6.1 0.00 0.00 0.00 46 1011.2
20260503225559 59 235 1.7 4.3 0.00 0.00 0.00 46 1011.2
20260503225505 59 235 1.7 4.3 0.00 0.00 0.00 46 1011.2
20260503225400 59 194 1.7 2.6 0.00 0.00 0.00 49 1011.2
20260503225159 59 194 0.9 2.6 0.00 0.00 0.00 48 1011.2
20260503225004 59 194 0.0 2.6 0.00 0.00 0.00 48 1011.2
20260503224858 59 194 0.9 6.1 0.00 0.00 0.00 47 1011.2
20260503224758 59 194 0.9 6.1 0.00 0.00 0.00 48 1011.2
20260503224659 59 194 0.9 6.1 0.00 0.00 0.00 47 1011.2
20260503224559 59 194 0.9 6.1 0.00 0.00 0.00 46 1011.2
20260503224459 59 194 0.9 6.1 0.00 0.00 0.00 45 1011.2
20260503224259 59 193 1.7 6.1 0.00 0.00 0.00 46 1011.2
20260503224158 59 192 0.9 6.1 0.00 0.00 0.00 46 1011.3
20260503224059 59 192 1.7 6.1 0.00 0.00 0.00 45 1011.2
20260503224002 59 249 4.3 6.1 0.00 0.00 0.00 46 1011.2
20260503223901 59 245 2.6 4.3 0.00 0.00 0.00 44 1011.2
20260503223759 59 245 0.9 4.3 0.00 0.00 0.00 46 1011.2
20260503223659 59 244 0.9 6.1 0.00 0.00 0.00 46 1011.2
20260503223501 59 259 2.6 6.1 0.00 0.00 0.00 44 1011.2
20260503223300 59 255 1.7 6.1 0.00 0.00 0.00 44 1011.2
20260503223159 59 255 1.7 6.1 0.00 0.00 0.00 45 1011.2
20260503223001 59 284 2.6 6.1 0.00 0.00 0.00 44 1011.2
20260503222900 59 252 0.9 6.1 0.00 0.00 0.00 44 1011.2
20260503222659 59 254 0.9 4.3 0.00 0.00 0.00 45 1011.3
20260503222559 59 254 2.6 4.3 0.00 0.00 0.00 45 1011.2
20260503222359 59 254 1.7 4.3 0.00 0.00 0.00 46 1011.2
20260503222259 59 269 1.7 4.3 0.00 0.00 0.00 47 1011.2
20260503222200 59 256 2.6 4.3 0.00 0.00 0.00 46 1011.2
20260503222101 59 242 3.5 5.2 0.00 0.00 0.00 46 1011.1
20260503222000 59 252 2.6 5.2 0.00 0.00 0.00 46 1011.2
20260503221859 59 255 1.7 5.2 0.00 0.00 0.00 45 1011.2
20260503221759 59 256 1.7 5.2 0.00 0.00 0.00 45 1011.2
20260503221701 59 255 2.6 5.2 0.00 0.00 0.00 46 1011.2
20260503221559 59 254 0.9 5.2 0.00 0.00 0.00 46 1011.2
20260503221500 59 254 1.7 5.2 0.00 0.00 0.00 45 1011.1
20260503221359 59 255 1.7 5.2 0.00 0.00 0.00 48 1011.1
20260503221300 59 230 4.3 4.3 0.00 0.00 0.00 46 1011.1
20260503221200 59 236 3.5 3.5 0.00 0.00 0.00 47 1011.2
20260503221058 59 205 2.6 3.5 0.00 0.00 0.00 49 1011.2
20260503221001 59 205 1.7 3.5 0.00 0.00 0.00 48 1011.3
20260503220900 59 205 2.6 4.3 0.00 0.00 0.00 46 1011.3
20260503220759 59 205 0.9 4.3 0.00 0.00 0.00 46 1011.3
20260503220700 59 205 0.9 4.3 0.00 0.00 0.00 46 1011.3
20260503220559 59 205 1.7 4.3 0.00 0.00 0.00 45 1011.2
20260503220500 59 205 1.7 4.3 0.00 0.00 0.00 46 1011.3
20260503220400 59 231 2.6 4.3 0.00 0.00 0.00 46 1011.3
20260503220159 59 231 1.7 4.3 0.00 0.00 0.00 46 1011.3
20260503220059 59 229 2.6 4.3 0.00 0.00 0.00 45 1011.3
20260503220001 59 232 3.5 4.3 0.00 0.00 0.00 46 1011.3
20260503215859 59 258 2.6 5.2 0.00 0.00 0.00 45 1011.3
20260503215759 59 262 0.9 7.0 0.00 0.00 0.00 45 1011.3
20260503215700 59 255 3.5 7.0 0.00 0.00 0.00 46 1011.3
20260503215559 59 213 1.7 7.0 0.00 0.00 0.00 46 1011.3
20260503215504 59 212 1.7 7.0 0.00 0.00 0.00 47 1011.3
20260503215359 59 212 1.7 7.0 0.00 0.00 0.00 46 1011.3
20260503215259 59 293 0.0 7.0 0.00 0.00 0.00 47 1011.3
20260503215159 59 319 3.5 7.0 0.00 0.00 0.00 46 1011.3
20260503215100 59 273 2.6 7.0 0.00 0.00 0.00 45 1011.3
20260503214859 59 257 2.6 7.0 0.00 0.00 0.00 45 1011.3
20260503214759 59 262 6.1 7.0 0.00 0.00 0.00 46 1011.2
20260503214658 59 252 0.9 7.0 0.00 0.00 0.00 45 1011.3
20260503214258 59 236 2.6 7.0 0.00 0.00 0.00 46 1011.3
20260503214058 59 302 1.7 3.5 0.00 0.00 0.00 48 1011.2
20260503214001 59 255 0.9 3.5 0.00 0.00 0.00 45 1011.1
20260503213859 59 319 1.7 3.5 0.00 0.00 0.00 46 1011.1
20260503213700 59 234 1.7 3.5 0.00 0.00 0.00 46 1011.1
20260503213600 59 234 1.7 3.5 0.00 0.00 0.00 47 1011.1
20260503213501 59 234 1.7 4.3 0.00 0.00 0.00 47 1011.2
20260503213400 59 234 1.7 4.3 0.00 0.00 0.00 48 1011.2
20260503213300 59 234 0.9 4.3 0.00 0.00 0.00 46 1011.1
20260503213200 59 230 0.9 4.3 0.00 0.00 0.00 46 1011.1
20260503213059 59 230 1.7 4.3 0.00 0.00 0.00 45 1011.2
20260503213000 59 230 1.7 4.3 0.00 0.00 0.00 45 1011.2
20260503212900 59 230 1.7 4.3 0.00 0.00 0.00 45 1011.2
20260503212758 59 273 2.6 4.3 0.00 0.00 0.00 46 1011.2
20260503212701 59 261 2.6 5.2 0.00 0.00 0.00 43 1011.2
20260503212559 59 236 4.3 5.2 0.00 0.00 0.00 45 1011.1
20260503212501 59 340 0.9 5.2 0.00 0.00 0.00 46 1011.1
20260503212159 59 76 0.0 5.2 0.00 0.00 0.00 45 1011.1
20260503212059 59 80 0.9 7.0 0.00 0.00 0.00 44 1011.2
20260503212000 59 269 0.0 7.0 0.00 0.00 0.00 45 1011.2
20260503211858 60 269 0.9 7.0 0.00 0.00 0.00 46 1011.2
20260503211700 60 298 2.6 7.0 0.00 0.00 0.00 45 1011.2
20260503211300 60 248 0.9 7.0 0.00 0.00 0.00 44 1011.2
20260503211159 60 289 3.5 7.0 0.00 0.00 0.00 45 1011.2
20260503211100 60 219 1.7 6.1 0.00 0.00 0.00 45 1011.1
20260503211000 60 244 2.6 6.1 0.00 0.00 0.00 46 1011.1
20260503210800 60 265 1.7 6.1 0.00 0.00 0.00 46 1011.1
20260503210659 59 240 1.7 6.1 0.00 0.00 0.00 48 1011.1
20260503210600 59 261 1.7 6.1 0.00 0.00 0.00 46 1011.1
20260503210506 59 262 0.9 6.1 0.00 0.00 0.00 47 1011.1
20260503210358 59 262 1.7 6.1 0.00 0.00 0.00 47 1011.2
20260503210259 59 250 2.6 6.1 0.00 0.00 0.00 46 1011.2
20260503210200 59 250 1.7 6.1 0.00 0.00 0.00 45 1011.2
20260503210006 59 277 1.7 9.6 0.00 0.00 0.00 45 1011.3
20260503205900 59 260 5.2 9.6 0.00 0.00 0.00 46 1011.3
20260503205800 59 265 2.6 9.6 0.00 0.00 0.00 46 1011.3
20260503205559 59 269 2.6 9.6 0.00 0.00 0.00 46 1011.3
20260503205503 59 267 0.9 9.6 0.00 0.00 0.00 46 1011.3
20260503205359 59 279 1.7 9.6 0.00 0.00 0.00 46 1011.3
20260503205259 59 246 1.7 9.6 0.00 0.00 0.00 45 1011.3
20260503205158 59 259 6.1 9.6 0.00 0.00 0.00 45 1011.2
20260503205100 60 223 4.3 9.6 0.00 0.00 0.00 45 1011.3